Location: Marsån
(66.4167°N, 22.2833°E)
Time: 10:47:43
(UTC+00:00)

YAOGAN 1 - Pass Details

Date: 24 February 2024
Orbit: 612 x 614 km, 97.8° (Epoch: 15 April)

Event Time Altitude Azimuth Distance (km) Brightness Sun altitude
Rises 16:34:54 0° 160° (SSE) 2,885 5.8 -7.8°
Reaches altitude 10° 16:37:05 10° 161° (SSE) 1,983 5.0 -8.0°
Maximum altitude 16:41:24 84° 249° (WSW) 631 2.7 -8.4°
Drops below altitude 10° 16:45:46 10° 339° (NNW) 1,996 5.4 -8.8°
Sets 16:47:58 0° 340° (NNW) 2,906 6.2 -9.1°
